Location: Newark
(16.3678°N, 77.8722°E)
Time: 08:58:28
(UTC+00:00)

S-56A Canister/Altair - Pass Details

Date: 18 December 2019
Orbit: 634 x 2498 km, 38.9° (Epoch: 26 January)

Event Time Altitude Azimuth Distance (km) Brightness Sun altitude
Rises 12:13:18 0° 284° (WNW) 5,787 12.9 0.5°
Reaches altitude 10° 12:19:30 10° 265° (W) 4,438 13.0 -0.8°
Maximum altitude 12:25:37 16° 234° (SW) 3,565 12.5 -2.1°
Drops below altitude 10° 12:30:45 10° 200° (SSW) 3,595 11.7 -3.3°
Sets 12:34:58 0° 178° (S) 4,203 11.6 -4.2°
